This is the latest recevied weather packets stored in our database for station/object KC5DP. If no packets are shown the sender has not sent any weather packets the latest 10 day(s).
| Time | Temp. | Humidity | Pressure | Rain* | Wind** | Luminosity | Snow |
|---|---|---|---|---|---|---|---|
| 1777902536 | 20.56° C | 70% | 1017.4 hPa | 0 mm | - | 321 W/m² | - |
| 1777902233 | 20.56° C | 69% | 1017.3 hPa | 0 mm | - | 334 W/m² | - |
| 1777901931 | 20° C | 73% | 1017.4 hPa | 0 mm | - | 314 W/m² | - |
| 1777901629 | 19.44° C | 73% | 1017.4 hPa | 0 mm | - | 280 W/m² | - |
| 1777901326 | 18.33° C | 77% | 1017.2 hPa | 0 mm | - | 260 W/m² | - |
| 1777901023 | 18.89° C | 75% | 1017.4 hPa | 0 mm | - | 238 W/m² | - |
| 1777900721 | 18.33° C | 76% | 1017.4 hPa | 0 mm | - | 214 W/m² | - |
| 1777900417 | 18.89° C | 76% | 1017.4 hPa | 0 mm | - | 179 W/m² | - |
| 1777900114 | 17.78° C | 80% | 1017.4 hPa | 0 mm | - | 147 W/m² | - |
| 1777899811 | 15.56° C | 88% | 1017.5 hPa | 0 mm | - | 121 W/m² | - |
| 1777899508 | 15° C | 96% | 1017.5 hPa | 0 mm | - | 101 W/m² | - |
| 1777899206 | 15.56° C | 98% | 1017.4 hPa | 0 mm | - | 84 W/m² | - |
| 1777898903 | 14.44° C | 98% | 1017.4 hPa | 0 mm | - | 73 W/m² | - |
| 1777898600 | 13.33° C | 99% | 1017.1 hPa | 0 mm | - | 66 W/m² | - |
| 1777898297 | 12.78° C | 99% | 1017.4 hPa | 0 mm | - | 59 W/m² | - |
| 1777897994 | 12.22° C | 99% | 1017.2 hPa | 0 mm | - | 53 W/m² | - |
| 1777897690 | 11.67° C | 99% | 1017.2 hPa | 0 mm | - | 47 W/m² | - |
| 1777897387 | 11.67° C | 99% | 1017.1 hPa | 0 mm | - | 43 W/m² | - |
| 1777897083 | 11.67° C | 99% | 1017.3 hPa | 0 mm | - | 39 W/m² | - |
| 1777896780 | 11.11° C | 99% | 1017.1 hPa | 0 mm | - | 36 W/m² | - |
| 1777896477 | 10.56° C | 99% | 1017.3 hPa | 0 mm | - | 32 W/m² | - |
| 1777896174 | 10° C | 99% | 1017.2 hPa | 0 mm | - | 29 W/m² | - |
| 1777895872 | 9.44° C | 99% | 1017.1 hPa | 0 mm | - | 23 W/m² | - |
| 1777895569 | 9.44° C | 99% | 1017 hPa | 0 mm | - | 20 W/m² | - |
| 1777895267 | 9.44° C | 99% | 1016.9 hPa | 0 mm | - | 18 W/m² | - |
* Rain latest hour (hover to see other rain measurements)
** Current wind speed in m/s (hover to see current wind gust speed)